Time,TemperatureF,DewpointF,PressureIn,WindDirection,WindDirectionDegrees,WindSpeedMPH,WindSpeedGustMPH,Humidity,HourlyPrecipIn,Conditions,Clouds,dailyrainin,SolarRadiationWatts/m^2,SoftwareType,DateUTC
2013-02-06 00:21:00,28.0,25.0,-100.00,South,191,2.0,9.0,88,0.00,,,0.00,1.000000,,2013-02-06 08:21:00,
2013-02-06 00:31:00,28.0,25.0,-100.00,South,191,2.0,9.0,88,0.00,,,0.00,1.000000,,2013-02-06 08:31:00,
2013-02-06 00:41:00,28.0,25.0,-100.00,South,191,2.0,9.0,88,0.00,,,0.00,1.000000,,2013-02-06 08:41:00,
2013-02-06 00:53:00,28.0,25.0,-100.00,South,191,2.0,9.0,88,0.00,,,0.00,1.000000,,2013-02-06 08:53:00,
2013-02-06 01:21:00,28.0,26.0,-100.00,SSE,152,2.0,6.0,92,0.00,,,0.00,1.000000,,2013-02-06 09:21:00,
2013-02-06 01:31:00,28.0,26.0,-100.00,SSE,152,2.0,6.0,92,0.00,,,0.00,1.000000,,2013-02-06 09:31:00,
2013-02-06 01:41:00,28.0,26.0,-100.00,SSE,152,2.0,6.0,92,0.00,,,0.00,1.000000,,2013-02-06 09:41:00,
2013-02-06 01:51:00,28.0,26.0,-100.00,SSE,152,2.0,6.0,92,0.00,,,0.00,1.000000,,2013-02-06 09:51:00,
2013-02-06 02:21:00,29.0,26.0,-100.00,South,173,3.0,5.0,88,0.00,,,0.00,1.000000,,2013-02-06 10:21:00,
2013-02-06 02:31:00,29.0,26.0,-100.00,South,173,3.0,5.0,88,0.00,,,0.00,1.000000,,2013-02-06 10:31:00,
2013-02-06 02:41:00,29.0,26.0,-100.00,South,173,3.0,5.0,88,0.00,,,0.00,1.000000,,2013-02-06 10:41:00,
2013-02-06 02:51:00,29.0,26.0,-100.00,South,173,3.0,5.0,88,0.00,,,0.00,1.000000,,2013-02-06 10:51:00,
2013-02-06 03:22:00,28.0,26.0,-100.00,SSE,152,4.0,6.0,91,0.00,,,-99.99,1.000000,,2013-02-06 11:22:00,
2013-02-06 03:32:00,28.0,26.0,-100.00,SSE,152,4.0,6.0,91,0.00,,,-99.99,1.000000,,2013-02-06 11:32:00,
2013-02-06 03:42:00,28.0,26.0,-100.00,SSE,152,4.0,6.0,91,0.00,,,-99.99,1.000000,,2013-02-06 11:42:00,
2013-02-06 03:52:00,28.0,26.0,-100.00,SSE,152,4.0,6.0,91,0.00,,,-99.99,1.000000,,2013-02-06 11:52:00,
2013-02-06 04:22:00,29.0,27.0,-100.00,South,177,3.0,7.0,92,0.00,,,-99.99,1.000000,,2013-02-06 12:22:00,
2013-02-06 04:32:00,29.0,27.0,-100.00,South,177,3.0,7.0,92,0.00,,,-99.99,1.000000,,2013-02-06 12:32:00,
2013-02-06 04:42:00,29.0,27.0,-100.00,South,177,3.0,7.0,92,0.00,,,-99.99,1.000000,,2013-02-06 12:42:00,
2013-02-06 04:52:00,29.0,27.0,-100.00,South,177,3.0,7.0,92,0.00,,,-99.99,1.000000,,2013-02-06 12:52:00,
2013-02-06 05:21:00,29.0,26.0,-100.00,South,190,3.0,7.0,88,0.00,,,0.00,1.000000,,2013-02-06 13:21:00,
2013-02-06 05:31:00,29.0,26.0,-100.00,South,190,3.0,7.0,88,0.00,,,0.00,1.000000,,2013-02-06 13:31:00,
2013-02-06 05:42:00,29.0,26.0,-100.00,South,190,3.0,7.0,88,0.00,,,0.00,1.000000,,2013-02-06 13:42:00,
2013-02-06 05:51:00,29.0,26.0,-100.00,South,190,3.0,7.0,88,0.00,,,0.00,1.000000,,2013-02-06 13:51:00,
2013-02-06 06:21:00,29.0,26.0,-100.00,SSE,167,5.0,7.0,88,0.00,,,0.00,1.000000,,2013-02-06 14:21:00,
2013-02-06 06:31:00,29.0,26.0,-100.00,SSE,167,5.0,7.0,88,0.00,,,0.00,1.000000,,2013-02-06 14:31:00,
2013-02-06 06:41:00,29.0,26.0,-100.00,SSE,167,5.0,7.0,88,0.00,,,0.00,1.000000,,2013-02-06 14:41:00,
2013-02-06 06:52:00,29.0,26.0,-100.00,SSE,167,5.0,7.0,88,0.00,,,0.00,1.000000,,2013-02-06 14:52:00,
2013-02-06 07:11:00,29.0,25.0,-100.00,South,171,4.0,7.0,86,0.00,,,0.00,1.000000,,2013-02-06 15:11:00,
2013-02-06 07:21:00,29.0,25.0,-100.00,South,171,4.0,7.0,86,0.00,,,0.00,1.000000,,2013-02-06 15:21:00,
2013-02-06 07:31:00,29.0,25.0,-100.00,South,171,4.0,7.0,86,0.00,,,0.00,1.000000,,2013-02-06 15:31:00,
2013-02-06 07:41:00,29.0,25.0,-100.00,South,171,4.0,7.0,86,0.00,,,0.00,1.000000,,2013-02-06 15:41:00,
2013-02-06 07:51:00,29.0,25.0,-100.00,South,171,4.0,7.0,86,0.00,,,0.00,1.000000,,2013-02-06 15:51:00,
2013-02-06 08:21:00,29.0,25.0,-100.00,ESE,113,2.0,5.0,86,0.00,,,0.00,19.000000,,2013-02-06 16:21:00,
2013-02-06 08:32:00,29.0,25.0,-100.00,ESE,113,2.0,5.0,86,0.00,,,0.00,19.000000,,2013-02-06 16:32:00,
2013-02-06 08:42:00,29.0,25.0,-100.00,ESE,113,2.0,5.0,86,0.00,,,0.00,19.000000,,2013-02-06 16:42:00,
2013-02-06 08:51:00,29.0,25.0,-100.00,ESE,113,2.0,5.0,86,0.00,,,0.00,19.000000,,2013-02-06 16:51:00,
2013-02-06 09:21:00,35.0,27.0,-100.00,South,189,3.0,11.0,71,0.00,,,0.00,120.000000,,2013-02-06 17:21:00,
2013-02-06 09:32:00,35.0,27.0,-100.00,South,189,3.0,11.0,71,0.00,,,0.00,120.000000,,2013-02-06 17:32:00,
2013-02-06 10:22:00,34.0,26.0,-100.00,SSW,198,6.0,10.0,72,0.00,,,0.00,217.000000,,2013-02-06 18:22:00,
2013-02-06 10:32:00,34.0,26.0,-100.00,SSW,198,6.0,10.0,72,0.00,,,0.00,217.000000,,2013-02-06 18:32:00,
2013-02-06 10:41:00,34.0,26.0,-100.00,SSW,198,6.0,10.0,72,0.00,,,0.00,217.000000,,2013-02-06 18:41:00,
2013-02-06 10:52:00,34.0,26.0,-100.00,SSW,198,6.0,10.0,72,0.00,,,0.00,217.000000,,2013-02-06 18:52:00,
2013-02-06 11:21:00,38.0,27.0,-100.00,SSW,199,7.0,11.0,63,0.00,,,0.00,234.000000,,2013-02-06 19:21:00,
2013-02-06 11:31:00,38.0,27.0,-100.00,SSW,199,7.0,11.0,63,0.00,,,0.00,234.000000,,2013-02-06 19:31:00,
2013-02-06 11:41:00,38.0,27.0,-100.00,SSW,199,7.0,11.0,63,0.00,,,0.00,234.000000,,2013-02-06 19:41:00,
2013-02-06 11:52:00,38.0,27.0,-100.00,SSW,199,7.0,11.0,63,0.00,,,0.00,234.000000,,2013-02-06 19:52:00,
2013-02-06 12:21:00,41.0,26.0,-100.00,SSW,206,7.0,13.0,55,0.00,,,0.00,547.000000,,2013-02-06 20:21:00,
2013-02-06 12:31:00,41.0,26.0,-100.00,SSW,206,7.0,13.0,55,0.00,,,0.00,547.000000,,2013-02-06 20:31:00,
2013-02-06 12:41:00,41.0,26.0,-100.00,SSW,206,7.0,13.0,55,0.00,,,0.00,547.000000,,2013-02-06 20:41:00,
2013-02-06 12:52:00,41.0,26.0,-100.00,SSW,206,7.0,13.0,55,0.00,,,0.00,547.000000,,2013-02-06 20:52:00,
2013-02-06 13:21:00,43.0,27.0,-100.00,SW,217,8.0,15.0,52,0.00,,,0.00,596.000000,,2013-02-06 21:21:00,
2013-02-06 13:32:00,43.0,27.0,-100.00,SW,217,8.0,15.0,52,0.00,,,0.00,596.000000,,2013-02-06 21:32:00,
2013-02-06 13:41:00,43.0,27.0,-100.00,SW,217,8.0,15.0,52,0.00,,,0.00,596.000000,,2013-02-06 21:41:00,
2013-02-06 13:51:00,43.0,27.0,-100.00,SW,217,8.0,15.0,52,0.00,,,0.00,596.000000,,2013-02-06 21:51:00,
2013-02-06 14:21:00,41.0,26.0,-100.00,SW,231,7.0,14.0,54,0.00,,,0.00,514.000000,,2013-02-06 22:21:00,
2013-02-06 14:31:00,41.0,26.0,-100.00,SW,231,7.0,14.0,54,0.00,,,0.00,514.000000,,2013-02-06 22:31:00,
2013-02-06 14:41:00,41.0,26.0,-100.00,SW,231,7.0,14.0,54,0.00,,,0.00,514.000000,,2013-02-06 22:41:00,
2013-02-06 14:51:00,41.0,26.0,-100.00,SW,231,7.0,14.0,54,0.00,,,0.00,514.000000,,2013-02-06 22:51:00,
2013-02-06 15:21:00,44.0,23.0,-100.00,SSW,211,8.0,14.0,43,0.00,,,0.00,495.000000,,2013-02-06 23:21:00,
2013-02-06 15:31:00,44.0,23.0,-100.00,SSW,211,8.0,14.0,43,0.00,,,0.00,495.000000,,2013-02-06 23:31:00,
2013-02-06 15:41:00,44.0,23.0,-100.00,SSW,211,8.0,14.0,43,0.00,,,0.00,495.000000,,2013-02-06 23:41:00,
2013-02-06 15:51:00,44.0,23.0,-100.00,SSW,211,8.0,14.0,43,0.00,,,0.00,495.000000,,2013-02-06 23:51:00,
2013-02-06 16:21:00,40.0,25.0,-100.00,SSW,203,4.0,14.0,54,0.00,,,0.00,184.000000,,2013-02-07 00:21:00,
2013-02-06 16:31:00,40.0,25.0,-100.00,SSW,203,4.0,14.0,54,0.00,,,0.00,184.000000,,2013-02-07 00:31:00,
2013-02-06 16:41:00,40.0,25.0,-100.00,SSW,203,4.0,14.0,54,0.00,,,0.00,184.000000,,2013-02-07 00:41:00,
2013-02-06 16:51:00,40.0,25.0,-100.00,SSW,203,4.0,14.0,54,0.00,,,0.00,184.000000,,2013-02-07 00:51:00,
2013-02-06 17:21:00,39.0,25.0,-100.00,South,178,5.0,8.0,57,0.00,,,0.00,130.000000,,2013-02-07 01:21:00,
2013-02-06 17:31:00,39.0,25.0,-100.00,South,178,5.0,8.0,57,0.00,,,0.00,130.000000,,2013-02-07 01:31:00,
2013-02-06 17:41:00,39.0,25.0,-100.00,South,178,5.0,8.0,57,0.00,,,0.00,130.000000,,2013-02-07 01:41:00,
2013-02-06 17:52:00,39.0,25.0,-100.00,South,178,5.0,8.0,57,0.00,,,0.00,130.000000,,2013-02-07 01:52:00,
2013-02-06 18:21:00,37.0,26.0,-100.00,South,178,2.0,10.0,63,0.00,,,-99.99,12.000000,,2013-02-07 02:21:00,
2013-02-06 18:31:00,37.0,26.0,-100.00,South,178,2.0,10.0,63,0.00,,,-99.99,12.000000,,2013-02-07 02:31:00,
2013-02-06 18:41:00,37.0,26.0,-100.00,South,178,2.0,10.0,63,0.00,,,-99.99,12.000000,,2013-02-07 02:41:00,
2013-02-06 18:51:00,37.0,26.0,-100.00,South,178,2.0,10.0,63,0.00,,,-99.99,12.000000,,2013-02-07 02:51:00,
2013-02-06 19:21:00,35.0,26.0,-100.00,WSW,237,4.0,10.0,68,0.00,,,0.00,1.000000,,2013-02-07 03:21:00,
2013-02-06 19:31:00,35.0,26.0,-100.00,WSW,237,4.0,10.0,68,0.00,,,0.00,1.000000,,2013-02-07 03:31:00,
2013-02-06 19:41:00,35.0,26.0,-100.00,WSW,237,4.0,10.0,68,0.00,,,0.00,1.000000,,2013-02-07 03:41:00,
2013-02-06 19:51:00,35.0,26.0,-100.00,WSW,237,4.0,10.0,68,0.00,,,0.00,1.000000,,2013-02-07 03:51:00,
2013-02-06 20:22:00,32.0,24.0,-100.00,NW,304,7.0,10.0,72,0.00,,,0.00,1.000000,,2013-02-07 04:22:00,
2013-02-06 20:31:00,32.0,24.0,-100.00,NW,304,7.0,10.0,72,0.00,,,0.00,1.000000,,2013-02-07 04:31:00,
2013-02-06 20:41:00,32.0,24.0,-100.00,NW,304,7.0,10.0,72,0.00,,,0.00,1.000000,,2013-02-07 04:41:00,
2013-02-06 21:21:00,32.0,26.0,-100.00,SW,226,3.0,8.0,77,0.00,,,0.00,1.000000,,2013-02-07 05:21:00,
2013-02-06 21:32:00,32.0,26.0,-100.00,SW,226,3.0,8.0,77,0.00,,,0.00,1.000000,,2013-02-07 05:32:00,
2013-02-06 21:42:00,32.0,26.0,-100.00,SW,226,3.0,8.0,77,0.00,,,0.00,1.000000,,2013-02-07 05:42:00,
2013-02-06 21:52:00,32.0,26.0,-100.00,SW,226,3.0,8.0,77,0.00,,,0.00,1.000000,,2013-02-07 05:52:00,
2013-02-06 22:22:00,32.0,26.0,-100.00,South,179,3.0,6.0,78,0.00,,,0.00,1.000000,,2013-02-07 06:22:00,
2013-02-06 22:31:00,32.0,26.0,-100.00,South,179,3.0,6.0,78,0.00,,,0.00,1.000000,,2013-02-07 06:31:00,
2013-02-06 22:43:00,32.0,26.0,-100.00,South,179,3.0,6.0,78,0.00,,,0.00,1.000000,,2013-02-07 06:43:00,
2013-02-06 22:52:00,32.0,26.0,-100.00,South,179,3.0,6.0,78,0.00,,,0.00,1.000000,,2013-02-07 06:52:00,
2013-02-06 23:22:00,32.0,26.0,-100.00,SSE,165,3.0,8.0,79,0.00,,,0.00,1.000000,,2013-02-07 07:22:00,
2013-02-06 23:31:00,32.0,26.0,-100.00,SSE,165,3.0,8.0,79,0.00,,,0.00,1.000000,,2013-02-07 07:31:00,
2013-02-06 23:41:00,32.0,26.0,-100.00,SSE,165,3.0,8.0,79,0.00,,,0.00,1.000000,,2013-02-07 07:41:00,
2013-02-06 23:52:00,32.0,26.0,-100.00,SSE,165,3.0,8.0,79,0.00,,,0.00,1.000000,,2013-02-07 07:52:00,